Concord, NH

1:55 AM EST on January 23, 2018 (GMT -0500)
Concord Municipal

Weather History for KCON - December, 2011

Change the Weather History Date:

Monday, December 12, 2011

  Actual Average Record
Temperature  
Mean Temperature 32 °F 28 °F  
Max Temperature 48 °F 37 °F 67 °F (1979)
Min Temperature 16 °F 19 °F -17 °F (1917)
Degree Days  
Heating Degree Days 33 37  
Month to date heating degree days 347 417  
Since 1 July heating degree days 1597 1977  
Cooling Degree Days 0 0  
Month to date cooling degree days 0 0  
Year to date cooling degree days 561 452  
Moisture  
Dew Point 17 °F    
Average Humidity 59    
Maximum Humidity 92    
Minimum Humidity 26    
Precipitation  
Precipitation 0.00 in 0.11 in 1.63 in (1952)
Month to date precipitation 2.43 1.33  
Year to date precipitation 53.14 38.74  
Snow  
Snow 0.00 in 0.40 in 11.50 in (1960)
Month to date snowfall T 4.8  
Since 1 July snowfall 25.7 7.4  
Snow Depth 0.00 in    
Sea Level Pressure  
Sea Level Pressure 30.48 in    
Wind  
Wind Speed 2 mph (South)    
Max Wind Speed 9 mph    
Max Gust Speed 13 mph    
Visibility 10 miles    
Events      
T = Trace of Precipitation, MM = Missing Value Source: NWS Daily Summary

Daily Weather History Graph

Daily Weather History Graph

Search for Another Location

Airport or City:

Trip Planner

Search our weather history database for the weather conditions in past years. The results will help you decide how hot, cold, wet, or windy it might be!

Date:

Astronomy

Dec. 12, 2011 Rise Set
Actual Time 7:08 AM EST 4:10 PM EST
Civil Twilight 6:36 AM EST 4:43 PM EST
Nautical Twilight 6:00 AM EST 5:19 PM EST
Astronomical Twilight 5:25 AM EST 5:53 PM EST
Moon 6:19 PM EST (12/12) 8:37 AM EST (12/12)
Length of Visible Light 10h 07m
Length of Day
9h 02m
Waning Gibbous, 96% of the Moon is Illuminated
Dec 12
Waning Gibbous
Dec 17
Last Quarter
Dec 24
New
Jan 1
First Quarter
Jan 9
Full

Hourly Weather History & Observations

Time (EST) Temp. Windchill Dew Point Humidity Pressure Visibility Wind Dir Wind Speed Gust Speed Precip Events Conditions
12:51 AM 24.1 °F 19.7 °F 16.0 °F 71% 30.55 in 10.0 mi South 3.5 mph - N/A   Clear
1:51 AM 24.1 °F 19.7 °F 17.1 °F 75% 30.54 in 10.0 mi SE 3.5 mph - N/A   Clear
2:51 AM 21.9 °F - 16.0 °F 78% 30.54 in 10.0 mi Calm Calm - N/A   Clear
3:51 AM 19.9 °F - 17.1 °F 89% 30.53 in 10.0 mi Calm Calm - N/A   Clear
4:51 AM 17.6 °F - 15.8 °F 93% 30.51 in 10.0 mi Calm Calm - N/A   Clear
5:51 AM 18.0 °F - 16.0 °F 92% 30.54 in 10.0 mi Calm Calm - N/A   Clear
6:51 AM 17.1 °F 11.7 °F 14.0 °F 88% 30.54 in 10.0 mi NNE 3.5 mph - N/A   Clear
7:51 AM 19.0 °F - 17.1 °F 92% 30.54 in 9.0 mi Calm Calm - N/A   Clear
8:51 AM 26.1 °F - 21.0 °F 81% 30.55 in 10.0 mi Calm Calm - N/A   Clear
9:51 AM 32.0 °F - 19.9 °F 61% 30.54 in 10.0 mi Calm Calm - N/A   Clear
10:51 AM 36.0 °F - 19.0 °F 50% 30.51 in 10.0 mi Calm Calm - N/A   Clear
11:51 AM 41.0 °F 37.1 °F 19.9 °F 43% 30.48 in 10.0 mi SSW 5.8 mph - N/A   Clear
12:51 PM 44.1 °F 42.5 °F 19.9 °F 38% 30.45 in 10.0 mi Variable 3.5 mph - N/A   Clear
1:51 PM 46.9 °F - 14.0 °F 27% 30.43 in 10.0 mi SW 5.8 mph - N/A   Clear
2:51 PM 46.9 °F - 14.0 °F 27% 30.43 in 10.0 mi SSW 9.2 mph - N/A   Clear
3:51 PM 44.1 °F 42.5 °F 12.9 °F 28% 30.43 in 10.0 mi SSW 3.5 mph - N/A   Clear
4:51 PM 34.0 °F - 16.0 °F 48% 30.43 in 10.0 mi Calm Calm - N/A   Clear
5:51 PM 28.9 °F - 17.1 °F 61% 30.43 in 10.0 mi Calm Calm - N/A   Clear
6:51 PM 26.1 °F - 19.0 °F 75% 30.42 in 10.0 mi Calm Calm - N/A   Clear
7:51 PM 27.0 °F 20.5 °F 19.9 °F 75% 30.43 in 10.0 mi South 5.8 mph - N/A   Clear
8:51 PM 24.1 °F - 18.0 °F 77% 30.41 in 10.0 mi Calm Calm - N/A   Clear
9:51 PM 21.0 °F - 17.1 °F 85% 30.40 in 10.0 mi Calm Calm - N/A   Clear
10:51 PM 21.9 °F - 18.0 °F 85% 30.40 in 10.0 mi Calm Calm - N/A   Clear
11:51 PM 19.9 °F - 18.0 °F 92% 30.39 in 10.0 mi Calm Calm - N/A   Clear